Regional Weather Roundup
Issued by NWS

Home | Current Version | Previous Version | Text Only | Print | Product List | Glossary On
Versions: 1 2 3 4 5 6 7 8 9 10 11 12 13 14 15 16 17 18 19 20 21 22 23 24 25 26 27 28 29 30 31 32 33 34 35 36 37 38 39 40 41 42 43 44 45 46 47 48 49 50
000
ASUS44 KOUN 232210
RWROK

WEATHER ROUNDUP FOR OKLAHOMA
NATIONAL WEATHER SERVICE NORMAN OK
400 PM CST THU NOV 23 2017

NOTE: "FAIR" INDICATES FEW OR NO CLOUDS BELOW 12,000 FEET WITH NO
      SIGNIFICANT WEATHER AND/OR OBSTRUCTIONS TO VISIBILITY.

OKZ001>007-009>012-014-015-017-232300-
NORTHWEST OKLAHOMA AND THE PANHANDLE

CITY           SKY/WX    TMP DP  RH WIND       PRES   REMARKS
GAGE           SUNNY     76  37  24 SW3       29.99F
GUYMON         SUNNY     76  38  25 W7        30.01F
ENID/WOODRING  PTSUNNY   70  39  32 S7        29.98F
$$

OKZ016-021>023-033>039-044-045-232300-
SOUTHWEST OKLAHOMA

CITY           SKY/WX    TMP DP  RH WIND       PRES   REMARKS
LAWTON/REGL    SUNNY     70  34  26 S8        30.01F
LAWTON/FT SILL SUNNY     71  38  31 S8        30.00F
FREDERICK      SUNNY     72  32  23 S5        29.99F
CLINTON        SUNNY     74  33  22 S6        30.01F
HOBART         SUNNY     74  34  23 S9        30.01F
$$

OKZ018>020-024>031-232300-
CENTRAL OKLAHOMA

CITY           SKY/WX    TMP DP  RH WIND       PRES   REMARKS
OKLAHOMA CITY  PTSUNNY   69  31  24 S6        30.00F
OKC/WILEY POST SUNNY     70  34  26 SW8       30.00F
OKC/TINKER AFB SUNNY     69  32  25 S8        30.00F HAZE
STILLWATER     SUNNY     70  31  23 S5        29.99F
GUTHRIE        SUNNY     68  32  26 SW5       29.99F
$$

OKZ008-013-054>072-232300-
NORTHEAST OKLAHOMA

CITY           SKY/WX    TMP DP  RH WIND       PRES   REMARKS
TULSA          MOSUNNY   67  29  24 SE6       30.00F
TULSA/JONES    SUNNY     69  28  21 S3        30.00F
PONCA CITY     SUNNY     67  33  28 S5        29.98F
BARTLESVILLE   SUNNY     69  30  23 SW5       30.00F
MUSKOGEE       SUNNY     65  28  24 S7        30.04S
$$

OKZ032-040>043-046>053-073>077-232300-
SOUTH CENTRAL/SOUTHEAST OKLAHOMA

CITY           SKY/WX    TMP DP  RH WIND       PRES   REMARKS
ARDMORE/DWNTWN SUNNY     70  27  19 SW3       30.02S
MCALESTER      MOSUNNY   66  28  24 S7        30.03F
$$




USA.gov is the U.S. government's official web portal to all federal, state and local government web resources and services.